[[{"header":{"parameterUnit":"m.s-1","parameterCategory":1,"la1":30.2991,"la2":30.254,"lo1":-89.0895,"lo2":-89.0444,"dy":0.0017,"dx":0.0017,"nx":28,"ny":28,"refTime":"2023-09-28T03:00:00:Z","depth":0,"parameterNumber":2,"parameterNumberName":"U-component_of_WINDS"},"data":[0,0,0,0,0,0,0,0,0,0,0,0,0,0,0,0,0,0,0,0,0,0,0,0,0,0,0,0,0,0,0,0,0,0,0,0,0,0,0,0,0,0,0,0,0,0,0,0,0,0,0,0,0,0,0,0,0,0,-4.8977,-4.8978,0,-4.9041,-4.9042,-4.9042,-4.8933,-4.8929,-4.8925,-4.8922,-4.8987,-4.8993,-4.8998,0,0,0,0,0,0,0,0,0,0,0,0,0,-4.8762,-4.8766,-4.8977,-4.8978,-4.8978,-4.9041,-4.9042,-4.9042,-4.8933,-4.8929,-4.8924,-4.892,-4.8986,-4.8992,-4.8998,0,0,0,0,0,0,0,0,0,0,0,0,0,-4.8843,-4.8768,-4.8977,-4.8931,-4.8928,-4.9041,-4.9042,-4.9043,-4.8934,-4.8929,-4.8923,-4.8918,-4.8984,-4.8991,-4.8999,-4.9159,0,0,-4.9023,-4.9026,0,0,0,0,0,0,0,0,-4.8839,-4.8851,-4.8937,-4.8935,-4.8931,-4.8973,-4.899,-4.9082,-4.8936,-4.8932,-4.8922,-4.8915,-4.8987,-4.8994,-4.9019,-4.9162,-4.9165,-4.9024,-4.9028,-4.9032,-4.9034,0,0,0,0,0,0,0,-4.8833,-4.8848,-4.9002,-4.8939,-4.8935,-4.8908,-4.8914,-4.9007,-4.899,-4.8932,-4.8924,-4.8933,-4.8984,-4.9011,-4.9019,-4.9166,-4.9023,-4.903,-4.9035,-4.9038,-4.9443,-4.9449,0,0,0,0,0,0,-4.8833,-4.8844,-4.9,-4.9004,-4.887,-4.8917,-4.8923,-4.8965,-4.8989,-4.8987,-4.8938,-4.8928,-4.9001,-4.901,-4.9021,-4.9208,-4.9032,-4.9039,-4.9043,-4.9437,-4.9445,-4.9451,0,0,0,0,0,0,-4.8829,-4.8848,-4.8997,-4.8922,-4.8939,-4.8926,-4.8975,-4.8969,-4.8996,-4.8993,-4.899,-4.8968,-4.8997,-4.901,-4.9125,-4.9209,-4.9042,-4.905,-4.943,-4.9439,-4.9448,-4.9585,0,0,0,0,0,0,-4.8823,-4.8847,-4.8907,-4.8924,-4.8943,-4.91,-4.898,-4.8975,-4.901,-4.8997,-4.9021,-4.9019,-4.8993,-4.9114,-4.9133,-4.9217,-4.9056,-4.9422,-4.9434,-4.9445,-4.9573,-4.9597,-4.9619,0,0,0,0,0,-4.8816,-4.8943,-4.8911,-4.893,-4.9018,-4.9105,-4.9116,-4.9084,-4.9017,-4.9077,-4.9076,-4.9018,-4.9198,-4.9127,-4.9147,-4.9235,-4.9417,-4.9431,-4.9444,-4.9562,-4.9593,-4.9618,0,0,0,0,0,0,-4.8935,-4.8944,-4.8908,-4.9045,-4.9075,-4.9086,-4.9161,-4.9117,-4.9166,-4.9153,-4.9111,-4.9117,-4.9241,-4.925,-4.917,-4.9391,-4.9296,-4.9315,-4.9379,-4.9408,-4.9431,-4.9424,-4.9062,0,0,0,0,0,-4.8978,-4.9048,-4.9052,-4.9172,-4.9189,-4.9174,-4.921,-4.9183,-4.9212,-4.9224,-4.9231,-4.9263,-4.9326,-4.9368,-4.9426,-4.9575,-4.9578,-4.9646,-4.9669,-4.9688,-4.9703,-4.9782,-4.9811,-4.9496,-4.9496,-4.9496,0,0,-4.9066,-4.908,-4.9126,-4.9197,-4.9217,-4.929,-4.9184,-4.9266,-4.932,-4.9237,-4.9345,-4.9352,-4.9384,-4.9517,-4.9576,-4.9528,-4.9792,-4.9705,-4.972,-4.9725,-4.9799,-4.9829,-4.9855,-4.9505,-4.9504,-4.9502,0,0,-4.9262,-4.9281,-4.9382,-4.9405,-4.9437,-4.9426,-4.9451,-4.947,-4.9471,-4.958,-4.9519,-4.9584,-4.9694,-4.9719,-4.9746,-4.9957,-4.9905,-4.9977,-5.0096,-5.0173,-5.0198,-5.022,-5.0293,-5.032,-4.9993,-4.9994,-4.9994,0,-4.9367,-4.9474,-4.944,-4.9526,-4.9559,-4.9489,-4.9591,-4.9616,-4.9666,-4.969,-4.9637,-4.9774,-4.9791,-4.9928,-4.998,-5.0005,-5.0032,-4.9972,-5.0197,-5.0219,-5.0239,-5.0308,-5.0336,-5.0002,-5.0001,-5.0,-4.9999,0,-4.9601,-4.9677,-4.9755,-4.9805,-4.9847,-4.9942,-4.9922,-4.9969,-4.994,-4.9935,-5.0047,-5.0066,-5.0126,-5.0158,-5.013,-5.0292,-5.0261,-5.0204,-5.0107,-5.0277,-5.0341,-5.0368,-5.0014,-5.0011,-5.0008,-5.0006,0,0,-4.9869,-4.9902,-4.9931,-4.9952,-4.9985,-5.0043,-5.0136,-5.0195,-5.0235,-5.0274,-5.0349,-5.0446,-5.0394,-5.0425,-5.04,-5.0469,-5.0632,-5.0403,-5.0403,-5.0442,-5.081,-5.085,-5.0882,-5.0601,-5.0606,-5.061,-5.0807,0,-5.0063,-5.022,-5.0193,-5.0346,-5.0416,-5.0352,-5.0432,-5.0461,-5.046,-5.052,-5.0519,-5.0587,-5.0514,-5.0532,-5.0598,-5.0598,-5.0705,-5.0585,-5.0669,-5.0672,-5.0659,-5.0915,-5.0958,-5.1143,-5.0832,-5.0836,-5.0839,0,-5.0308,-5.0355,-5.0515,-5.0537,-5.0566,-5.0638,-5.0691,-5.0749,-5.0781,-5.0776,-5.0813,-5.0776,-5.0868,-5.0774,-5.0901,-5.0819,-5.0853,-5.086,-5.0866,-5.0869,-5.0763,-5.0923,-5.1201,-5.1228,-5.0879,-5.0876,-5.0873,0,-5.0485,-5.0589,-5.0698,-5.0719,-5.0749,-5.0801,-5.0816,-5.0843,-5.0881,-5.0928,-5.0952,-5.101,-5.1041,-5.1087,-5.1067,-5.1001,-5.1197,-5.1102,-5.1194,-5.1195,-5.1235,-5.1232,-5.1519,-5.1263,-5.1263,-5.1262,-5.1262,0,-5.0701,-5.08,-5.0778,-5.0844,-5.0955,-5.0925,-5.1035,-5.1042,-5.1067,-5.1134,-5.1085,-5.1149,-5.112,-5.1183,-5.1169,-5.1275,-5.129,-5.1288,-5.1282,-5.129,-5.129,-5.1309,-5.1294,-5.127,-5.1268,-5.1267,-5.1265,0,-5.0914,-5.0904,-5.1018,-5.1037,-5.1045,-5.1125,-5.1141,-5.1204,-5.1201,-5.1287,-5.1306,-5.1301,-5.1372,-5.1358,-5.1437,-5.1428,-5.156,-5.154,-5.1549,-5.1542,-5.1635,-5.1625,-5.1941,-5.198,-5.1703,-5.1705,-5.1707,0,-5.1051,-5.1126,-5.1154,-5.1196,-5.1215,-5.1283,-5.1321,-5.1296,-5.1339,-5.1383,-5.144,-5.1508,-5.1559,-5.1677,-5.1681,-5.1741,-5.172,-5.1827,-5.1729,-5.1735,-5.1719,-5.1713,-5.172,-5.1845,-5.1848,-5.1851,-5.1853,0,-5.1294,-5.1286,-5.1343,-5.14,-5.1448,-5.1492,-5.153,-5.1568,-5.1546,-5.1597,-5.1669,-5.171,-5.1791,-5.1858,-5.1915,-5.1931,-5.1889,-5.1885,-5.1909,-5.1916,-5.1916,-5.1915,-5.1598,-5.1877,-5.1874,-5.1872,-5.1871,-5.187,-5.1471,-5.1535,-5.1565,-5.1631,-5.1658,-5.1696,-5.1756,-5.1761,-5.1821,-5.1885,-5.1868,-5.195,-5.1982,-5.2054,-5.2077,-5.2141,-5.2101,-5.2137,-5.2145,-5.2154,-5.2164,-5.191,-5.2152,-5.2152,-5.2151,-5.215,-5.215,0,-5.1709,-5.1726,-5.1788,-5.1844,-5.1896,-5.1854,-5.1896,-5.1942,-5.2015,-5.2049,-5.2102,-5.2186,-5.2252,-5.2262,-5.2325,-5.2375,-5.2357,-5.2392,-5.2386,-5.239,-5.2197,-5.2168,-5.2405,-5.2405,-5.2405,-5.2405,-5.2405,-5.2404,-5.1838,-5.1944,-5.194,-5.2059,-5.2075,-5.2155,-5.2182,-5.2217,-5.2244,-5.234,-5.2394,-5.2401,-5.2426,-5.249,-5.2549,-5.2551,-5.2575,-5.2616,-5.261,-5.2429,-5.2403,-5.2379,-5.2352,-5.2623,-5.2623,-5.2797,-5.2799,-5.28]},{"header":{"parameterUnit":"m.s-1","parameterCategory":1,"la1":30.2991,"la2":30.254,"lo1":-89.0895,"lo2":-89.0444,"dy":0.0017,"dx":0.0017,"nx":28,"ny":28,"refTime":"2023-09-28T03:00:00:Z","depth":0,"parameterNumber":3,"parameterNumberName":"V-component_of_WINDS"},"data":[0,0,0,0,0,0,0,0,0,0,0,0,0,0,0,0,0,0,0,0,0,0,0,0,0,0,0,0,0,0,0,0,0,0,0,0,0,0,0,0,0,0,0,0,0,0,0,0,0,0,0,0,0,0,0,0,0,0,1.5875,1.5875,0,1.5916,1.5916,1.5916,1.5946,1.5946,1.5947,1.5947,1.5985,1.5986,1.5987,0,0,0,0,0,0,0,0,0,0,0,0,0,1.5819,1.582,1.5875,1.5875,1.5876,1.5915,1.5916,1.5917,1.5946,1.5946,1.5947,1.5947,1.5985,1.5986,1.5987,0,0,0,0,0,0,0,0,0,0,0,0,0,1.585,1.582,1.5875,1.5895,1.5898,1.5915,1.5916,1.5917,1.5946,1.5946,1.5947,1.5947,1.5985,1.5986,1.5987,1.5986,0,0,1.5991,1.5991,0,0,0,0,0,0,0,0,1.5848,1.5852,1.5892,1.5894,1.5896,1.5926,1.5911,1.594,1.5946,1.5927,1.5947,1.5947,1.5965,1.5968,1.5975,1.5988,1.599,1.5991,1.5991,1.5992,1.5992,0,0,0,0,0,0,0,1.5846,1.585,1.5891,1.5892,1.5895,1.5902,1.5906,1.5916,1.5943,1.5929,1.5931,1.5936,1.5966,1.5973,1.5976,1.599,1.5991,1.5992,1.5992,1.5993,1.6006,1.6005,0,0,0,0,0,0,1.5841,1.5848,1.5889,1.5892,1.5873,1.5902,1.5908,1.5916,1.5943,1.5948,1.5936,1.5937,1.5971,1.5974,1.5977,1.5978,1.5992,1.5993,1.5994,1.6006,1.6006,1.6005,0,0,0,0,0,0,1.584,1.5844,1.5888,1.5871,1.5877,1.5903,1.5912,1.5917,1.5924,1.5949,1.5953,1.5938,1.5972,1.5976,1.5984,1.598,1.5994,1.5995,1.6007,1.6006,1.6006,1.598,0,0,0,0,0,0,1.5838,1.5844,1.5844,1.5871,1.5878,1.5895,1.5912,1.5917,1.5926,1.5929,1.5952,1.5956,1.5972,1.5982,1.5985,1.5982,1.5996,1.6007,1.6006,1.6006,1.5982,1.5979,1.5977,0,0,0,0,0,1.5836,1.5835,1.5844,1.5849,1.5879,1.5895,1.5898,1.5918,1.5926,1.5926,1.5942,1.5955,1.598,1.5983,1.5987,1.5983,1.6007,1.6007,1.6006,1.5983,1.598,1.5977,0,0,0,0,0,0,1.5806,1.5839,1.5849,1.5857,1.5873,1.59,1.5901,1.5914,1.5927,1.5929,1.5952,1.5957,1.5963,1.5974,1.5977,1.5984,1.5995,1.5995,1.5977,1.5974,1.5972,1.5968,1.5996,0,0,0,0,0,1.5801,1.5811,1.5839,1.5843,1.5851,1.5874,1.5882,1.5896,1.5913,1.5919,1.5936,1.595,1.5962,1.5969,1.598,1.5984,1.5989,1.5984,1.5981,1.5979,1.5978,1.5981,1.5979,1.6003,1.6003,1.6003,0,0,1.5789,1.5808,1.5813,1.5838,1.5852,1.5861,1.588,1.5889,1.5896,1.592,1.593,1.5942,1.596,1.5967,1.597,1.5976,1.5973,1.5978,1.5976,1.5977,1.598,1.5977,1.5975,1.6002,1.6002,1.6002,0,0,1.5773,1.5789,1.5794,1.5808,1.5829,1.5845,1.5846,1.5871,1.5881,1.5891,1.5909,1.5918,1.5937,1.5949,1.5958,1.5947,1.596,1.595,1.5937,1.594,1.5938,1.5936,1.5932,1.593,1.595,1.595,1.595,0,1.5755,1.5772,1.5794,1.5803,1.5813,1.5837,1.5842,1.5854,1.5877,1.5883,1.589,1.5915,1.5929,1.5938,1.5936,1.5942,1.5944,1.5947,1.5936,1.5935,1.5934,1.593,1.5928,1.5948,1.5949,1.5949,1.5949,0,1.5749,1.576,1.5761,1.5785,1.5795,1.5802,1.5825,1.5833,1.5846,1.5861,1.5871,1.5888,1.5904,1.5908,1.592,1.5919,1.5922,1.5932,1.5944,1.593,1.5927,1.5925,1.5947,1.5947,1.5947,1.5948,0,0,1.5714,1.5751,1.5751,1.5762,1.5788,1.5797,1.5805,1.5821,1.5827,1.5843,1.5849,1.5865,1.5875,1.5885,1.5899,1.5901,1.5891,1.5911,1.5912,1.5907,1.589,1.5882,1.588,1.59,1.59,1.59,1.5889,0,1.5701,1.5717,1.5739,1.5747,1.5758,1.5781,1.5787,1.5803,1.5818,1.5828,1.5843,1.5854,1.5867,1.5873,1.5876,1.5892,1.5888,1.5893,1.5905,1.5906,1.5899,1.5878,1.587,1.5858,1.5888,1.5888,1.5887,0,1.5688,1.5704,1.5714,1.574,1.5745,1.5751,1.5768,1.5778,1.5796,1.5807,1.5818,1.5834,1.5842,1.5853,1.5865,1.5867,1.5874,1.5882,1.5882,1.5884,1.5895,1.5878,1.5855,1.5853,1.5886,1.5886,1.5886,0,1.5661,1.5685,1.5694,1.5703,1.5733,1.5737,1.5749,1.5768,1.5777,1.5792,1.5798,1.5813,1.5821,1.5832,1.5851,1.5857,1.586,1.5873,1.5868,1.5867,1.5867,1.5866,1.5843,1.5872,1.5872,1.5872,1.5872,0,1.5644,1.5649,1.5683,1.5688,1.5695,1.5719,1.5724,1.5738,1.5755,1.5763,1.5784,1.5791,1.5816,1.5826,1.5841,1.5848,1.5851,1.5859,1.5863,1.5857,1.5856,1.586,1.5861,1.5872,1.5872,1.5872,1.5872,0,1.5615,1.5637,1.5649,1.5677,1.5684,1.5688,1.5711,1.5717,1.5733,1.5743,1.5747,1.5771,1.5784,1.5804,1.5822,1.5832,1.5836,1.5843,1.583,1.5832,1.5827,1.5827,1.5805,1.5803,1.5834,1.5833,1.5833,0,1.5602,1.5607,1.5636,1.5644,1.5656,1.5668,1.5677,1.5701,1.571,1.5732,1.5735,1.5749,1.5762,1.5781,1.58,1.5813,1.582,1.5812,1.5822,1.5816,1.5819,1.5819,1.5819,1.5809,1.5809,1.5808,1.5808,0,1.5577,1.5588,1.5602,1.562,1.5631,1.5646,1.5662,1.5666,1.5693,1.5702,1.5716,1.5726,1.5745,1.5759,1.5776,1.5788,1.5802,1.5805,1.5804,1.5798,1.579,1.5794,1.5823,1.5805,1.5805,1.5805,1.5805,1.5806,1.5555,1.5561,1.5582,1.5597,1.5612,1.5626,1.5633,1.5651,1.5663,1.5681,1.5695,1.5707,1.5726,1.575,1.5761,1.5771,1.5777,1.5776,1.5776,1.5776,1.5773,1.5789,1.5774,1.5774,1.5774,1.5774,1.5774,0,1.5531,1.5547,1.556,1.5582,1.5593,1.5608,1.5626,1.5634,1.5645,1.5662,1.5675,1.569,1.5704,1.5724,1.5739,1.5743,1.575,1.5746,1.5746,1.5748,1.5767,1.5765,1.574,1.574,1.574,1.574,1.574,1.574,1.552,1.553,1.5544,1.5561,1.5576,1.559,1.5599,1.5612,1.5626,1.5643,1.5655,1.5668,1.5686,1.5703,1.5716,1.5721,1.5725,1.5719,1.5727,1.5744,1.5747,1.575,1.5748,1.572,1.572,1.5707,1.5707,1.5707]}]]